GSAT-9

Last updated on Wed Sep 17 2025 00:02:49 GMT+0000 (Coordinated Universal Time)

1 42695U 17024A 25259.57822568 -.00000306 00000+0 00000+0 0 9994 2 42695 0.0462 88.4218 0002823 72.6348 140.1809 1.00274899 30552
UTC large
Height (km)
Speed (km/s)
/
Latitude / Longitude
Inclination (degrees)
Orbital Period (minutes)
Azimuth
Elevation
Range (km)
Doppler Factor

Next 0 passes for location: London (51.5072 / 0.1276)

Sorry there are no passes over London.